EW2956 Weather Reports


time (UTC)temp
C
wind
direction
speed
KPH
gust
KPH
rain 1hr
cm
rain 24hr
cm
rain mn
cm
humidity
%
barometer
mb
20260507031003 13 341 1.6 8.0 0.00 0.79 0.79 85 1009.7
20260507025003 13 355 1.6 12.9 0.00 0.79 0.79 86 1009.6
20260507024003 13 359 8.0 24.1 0.03 0.79 0.79 86 1009.1
20260507023003 14 358 1.6 14.5 0.03 0.79 0.79 88 1009.2
20260507022003 14 296 1.6 8.0 0.03 0.79 0.79 87 1009.1
20260507021003 14 324 3.2 14.5 0.03 0.79 0.79 87 1009.2
20260507020002 14 299 0.0 3.2 0.03 0.79 0.79 89 1009.3
20260507015003 15 275 1.6 8.0 0.03 0.79 0.79 88 1009.4
20260507014003 15 279 1.6 8.0 0.00 0.76 0.76 87 1009.3
20260507013002 15 298 1.6 6.4 0.00 0.76 0.76 88 1009.5
20260507012003 15 294 1.6 8.0 0.00 0.76 0.76 87 1009.1
20260507011003 15 273 1.6 6.4 0.00 0.76 0.76 87 1009.1
20260507010003 16 277 1.6 12.9 0.00 0.76 0.76 87 1008.7
20260507005003 16 294 1.6 8.0 0.00 0.76 0.76 89 1008.9
20260507004003 16 288 1.6 9.7 0.03 0.76 0.76 90 1008.8
20260507003003 16 317 0.0 16.1 0.05 0.76 0.76 92 1008.5
20260507002003 17 312 0.0 3.2 0.08 0.76 0.76 92 1008.1
20260507001003 17 328 0.0 1.6 0.10 0.76 0.76 91 1007.5
20260507000003 17 207 0.0 3.2 0.10 0.76 0.76 90 1007.2
20260506235003 17 227 1.6 6.4 0.10 0.76 0.76 90 1007.2
20260506234003 17 211 0.0 3.2 0.08 0.74 0.74 90 1007.4
20260506233003 17 181 0.0 3.2 0.05 0.71 0.71 89 1007.3
20260506232003 18 203 1.6 9.7 0.03 0.69 0.69 88 1007.4
20260506231003 18 227 1.6 9.7 0.00 0.66 0.66 87 1007.3
20260506230003 18 209 1.6 3.2 0.00 0.66 0.66 86 1007.1
20260506225003 18 193 1.6 8.0 0.00 0.66 0.66 85 1006.9
20260506223003 19 223 1.6 6.4 0.00 0.66 0.66 83 1007.0
20260506222003 19 216 1.6 6.4 0.00 0.66 0.66 82 1006.9
20260506220003 19 203 3.2 12.9 0.00 0.66 0.66 82 1006.7
20260506215003 19 207 3.2 16.1 0.00 0.66 0.66 81 1006.8
20260506213003 20 220 3.2 12.9 0.00 0.66 0.66 80 1006.6
20260506211003 20 224 6.4 17.7 0.00 0.66 0.66 77 1006.4
20260506210003 21 268 6.4 29.0 0.00 0.66 0.66 77 1006.2
20260506205003 21 211 6.4 14.5 0.00 0.66 0.66 80 1006.2
20260506204003 20 233 3.2 16.1 0.00 0.66 0.66 80 1006.3
20260506203003 20 249 3.2 14.5 0.00 0.66 0.66 81 1006.2
20260506202002 19 247 1.6 8.0 0.00 0.66 0.66 82 1006.2
20260506201003 19 235 3.2 12.9 0.00 0.66 0.66 82 1006.3
20260506195003 18 193 1.6 14.5 0.00 0.66 0.66 85 1006.4
20260506194003 18 220 1.6 9.7 0.00 0.66 0.66 86 1006.5
20260506192003 18 194 3.2 12.9 0.00 0.66 0.66 85 1006.5
20260506191003 18 188 3.2 14.5 0.00 0.66 0.66 86 1006.6
20260506190004 18 218 3.2 9.7 0.00 0.66 0.66 89 1006.6
20260506184003 17 212 3.2 12.9 0.00 0.66 0.66 90 1006.9
20260506182003 16 181 3.2 19.3 0.00 0.66 0.66 90 1007.2
20260506181003 16 208 3.2 14.5 0.00 0.66 0.66 90 1007.1
20260506180003 16 188 6.4 12.9 0.00 0.66 0.66 91 1007.3
20260506173003 16 191 6.4 19.3 0.00 0.66 0.66 91 1007.2
20260506172003 16 195 8.0 16.1 0.00 0.66 0.66 91 1007.1
20260506170003 16 195 6.4 19.3 0.00 0.66 0.66 91 1007.1
20260506165003 16 199 8.0 17.7 0.03 0.66 0.66 92 1007.1
20260506163003 16 188 6.4 22.5 0.08 0.66 0.66 92 1007.5
20260506162003 16 198 8.0 22.5 0.13 0.66 0.66 92 1007.6
20260506161003 16 189 6.4 24.1 0.15 0.66 0.66 92 1007.5
20260506155003 16 144 6.4 24.1 0.23 0.64 0.64 93 1006.9
20260506154003 16 175 3.2 16.1 0.23 0.58 0.58 93 1007.4
20260506153003 16 181 6.4 16.1 0.25 0.58 0.58 93 1007.9
20260506151003 16 207 6.4 14.5 0.23 0.48 0.48 92 1008.4
20260506150003 16 200 6.4 19.3 0.28 0.46 0.46 91 1008.4
20260506145003 16 187 3.2 14.5 0.28 0.41 0.41 91 1008.4
20260506143003 16 177 3.2 12.9 0.23 0.33 0.33 91 1008.3
20260506142003 16 183 6.4 22.5 0.25 0.33 0.33 91 1008.2
20260506141003 16 159 1.6 14.5 0.18 0.25 0.25 90 1008.1
20260506140003 16 154 1.6 9.7 0.13 0.18 0.18 90 1008.1
20260506135003 16 139 1.6 12.9 0.08 0.13 0.13 89 1008.1
20260506134003 16 154 1.6 9.7 0.08 0.10 0.10 88 1008.3
20260506133003 16 192 1.6 9.7 0.08 0.10 0.10 88 1008.1
20260506132003 16 199 0.0 6.4 0.05 0.08 0.08 87 1008.3
20260506131002 16 172 1.6 6.4 0.08 0.08 0.08 87 1008.3
20260506130003 16 176 1.6 6.4 0.05 0.05 0.05 86 1008.4
20260506125003 16 171 1.6 8.0 0.05 0.05 0.05 86 1008.4
20260506124003 16 170 1.6 9.7 0.03 0.03 0.03 85 1008.5
20260506122003 17 176 1.6 8.0 0.03 0.03 0.03 84 1008.7
20260506121004 17 179 3.2 12.9 0.00 0.00 0.00 83 1008.6
20260506120003 17 179 3.2 12.9 0.00 0.00 0.00 83 1008.3
20260506115003 17 183 3.2 12.9 0.00 0.00 0.00 81 1008.1
20260506114005 17 206 3.2 9.7 0.00 0.00 0.00 81 1008.2
20260506113003 17 195 3.2 14.5 0.00 0.00 0.00 80 1008.0
20260506112004 17 188 3.2 14.5 0.00 0.00 0.00 78 1007.9
20260506111003 17 183 6.4 14.5 0.00 0.00 0.00 77 1007.8
20260506110003 17 167 3.2 17.7 0.00 0.00 0.00 77 1007.6
20260506105003 17 184 3.2 14.5 0.00 0.00 0.00 77 1007.7
20260506104003 18 175 6.4 24.1 0.00 0.00 0.00 76 1007.7
20260506103003 18 193 3.2 17.7 0.00 0.00 0.00 77 1007.4
20260506102003 17 198 1.6 14.5 0.00 0.00 0.00 76 1007.4
20260506101003 18 184 3.2 14.5 0.00 0.00 0.00 76 1007.3
20260506100003 18 168 6.4 17.7 0.00 0.00 0.00 75 1007.2
20260506095003 18 186 3.2 14.5 0.00 0.00 0.00 75 1007.2
20260506094003 18 169 6.4 17.7 0.00 0.00 0.00 75 1007.2
20260506093004 18 175 6.4 19.3 0.00 0.00 0.00 74 1007.3
20260506092003 18 194 3.2 16.1 0.00 0.00 0.00 74 1007.4
20260506091003 18 181 3.2 17.7 0.00 0.00 0.00 74 1007.4
20260506085003 18 190 3.2 12.9 0.00 0.00 0.00 73 1007.4
20260506084003 18 186 3.2 14.5 0.00 0.00 0.00 72 1007.6
20260506083004 18 183 3.2 17.7 0.00 0.00 0.00 72 1007.6
20260506082003 18 191 3.2 17.7 0.00 0.00 0.00 72 1007.6
20260506081003 18 167 3.2 16.1 0.00 0.00 0.00 71 1007.6
20260506073003 18 178 1.6 6.4 0.00 0.00 0.00 68 1007.8
20260506072003 18 173 1.6 9.7 0.00 0.00 0.00 68 1007.8
20260506071003 18 163 1.6 8.0 0.00 0.00 0.00 67 1007.9
20260506062003 18 176 3.2 14.5 0.00 0.00 0.00 65 1008.3
20260506051003 18 182 1.6 9.7 0.00 0.00 0.00 63 1008.7
20260506044003 18 179 3.2 9.7 0.00 0.00 0.00 61 1008.8
20260506043003 18 169 1.6 8.0 0.00 0.00 0.00 61 1008.8
20260506041003 19 155 1.6 12.9 0.00 0.00 0.00 59 1008.8
20260506040004 19 152 1.6 9.7 0.00 0.00 0.00 59 1008.8
20260506035003 19 158 3.2 9.7 0.00 0.00 0.00 58 1008.8
20260506034004 19 156 1.6 14.5 0.00 0.00 0.00 58 1008.7
20260506032003 20 197 3.2 14.5 0.00 0.00 0.00 58 1008.7